Location: Marcé
(47.5801°N, 0.3280°W)
Time: 05:54:53
(UTC+01:00)

ISS - Pass Details

Date: 31 October 2021
Orbit: 417 x 422 km, 51.6° (Epoch: 04 December)

Event Time Altitude Azimuth Distance (km) Brightness Sun altitude
Exits shadow 07:00:05 10° 295° (WNW) 1,492 -1.6 -7.9°
Maximum altitude 07:03:17 43° 8° (N) 603 -3.0 -7.4°
Drops below altitude 10° 07:06:31 10° 82° (E) 1,498 0.4 -6.9°
Sets 07:08:41 0° 89° (E) 2,359 1.9 -6.5°
